Flag for Zimbabwe Weather past 2 weeks in Harare, Zimbabwe

Now
63 °F

Clear.


Feels Like: 63 °F
Forecast: 49 / 76 °F
Wind: 7 mph from Northeast

Location: Harare Kutsaga Airport

Current Time: Jul 26, 2014 at 7:33:11 PM

Latest Report: Jul 26, 2014 at 7:00 PM


Visibility: 10 mi

Pressure: 30.24 "Hg

Humidity: 42%

Dew point: 39 °F

Location of HarareLocation

Historic Weather in Harare — Graph

°F

Harare temperature yesterday

Maximum temperature yesterday: 75 °F (at 3:00 PM)
Minimum temperature yesterday: 43 °F (at 6:00 AM)
Average temperature yesterday: 61 °F

Past Weeks' High & Low Weather Summary

 TemperatureHumidityPressure
High77 °F (Jul 19, 3:00 PM)100% (Jul 17, 5:00 AM)30.48 "Hg (Jul 17, 5:00 AM)
Low37 °F (Jul 14, 6:00 AM)18% (Jul 19, 3:00 PM)30.18 "Hg (Jul 18, 2:00 PM)
Average58 °F54%30.33 "Hg
* Reported Jul 11 6:00 PM — Jul 26 6:00 PM, Harare, Weather by CustomWeather, © 2014

Note: Actual official high and low records may vary slightly from our data, if they occured in-between our weather recording intervals... More about our weather records

Advertising

Harare weather history for previous 24 hours

 ConditionsComfort  
Time TempWeatherWind HumidityBarometerVisibility
6:00 PM
Jul 26
64 °FClear.5 mph34%30.21 "Hg10 mi
5:00 PM73 °FSunny.5 mph23%30.21 "Hg10 mi
4:00 PM77 °FSunny.5 mph19%30.18 "Hg10 mi
3:00 PM75 °FSunny.5 mph22%30.18 "Hg10 mi
2:00 PM77 °FSunny.5 mph22%30.21 "Hg10 mi
1:00 PM75 °FSunny.7 mph24%30.21 "Hg10 mi
12:00 PM73 °FSunny.6 mph27%30.24 "Hg10 mi
11:00 AM70 °FSunny.5 mph31%30.27 "Hg10 mi
10:00 AM70 °FSunny.6 mph35%30.27 "Hg10 mi
9:00 AM66 °FPassing clouds.9 mph40%30.27 "HgN/A
8:00 AM61 °FPassing clouds.8 mph52%30.24 "HgN/A
7:00 AM55 °FSunny.10 mph63%30.21 "Hg10 mi
6:00 AM55 °FClear.12 mph59%30.18 "Hg10 mi
5:00 AM54 °FClear.10 mph63%30.18 "Hg10 mi
2:00 AM52 °FClear.9 mph58%30.18 "Hg10 mi
1:00 AM54 °FClear.8 mph54%30.21 "Hg10 mi
12:00 AM54 °FClear.7 mph51%30.21 "Hg10 mi
11:00 PM
Jul 25
54 °FClear.9 mph51%30.24 "Hg10 mi
10:00 PM54 °FClear.5 mph51%30.24 "Hg10 mi
8:00 PM59 °FClear.8 mph39%30.21 "Hg10 mi
7:00 PM63 °FClear.7 mph34%30.18 "Hg10 mi
Weather by CustomWeather, © 2014

See weather overviewHow to use our weather pages